Location: Ailly
(50.0793°N, 1.9944°E)
Time: 17:31:35
(UTC+00:00)

NOSS 8 (E) - Pass Details

Date: 15 January 2026
Orbit: 364 x 1529 km, 63.3° (Epoch: 18 February)

Event Time Altitude Azimuth Distance (km) Brightness Sun altitude
Exits shadow 05:58:14 39° 330° (NNW) 590 4.6 -16.5°
Maximum altitude 05:59:12 74° 46° (NE) 411 4.2 -16.4°
Drops below altitude 10° 06:02:29 10° 132° (SE) 1,545 8.1 -15.9°
Sets 06:04:47 0° 134° (SE) 2,541 9.3 -15.5°
